1362009629417,0.728132
1362009689417,0.733159
1362009749417,0.736333
1362009809417,0.724824
1362009869417,0.735955
1362009929417,0.730522
1362009989417,0.731667
1362010049417,0.734800
1362010109417,0.732597
1362010169417,0.734397
1362010229417,0.728201
1362010289417,0.738898
1362010349417,0.735285
1362010409417,0.725754
1362010469417,0.729648
1362010529417,0.734122
1362010589417,0.736750
1362010649417,0.727059
1362010709417,0.735944
1362010769417,0.728564
1362010829417,0.725160
1362010889417,0.728786
1362010949417,0.729712
1362011009417,0.725988
1362011069417,0.730213
1362011129417,0.728777
1362011189417,0.730032
1362011249417,0.731371
1362011309417,0.720618
1362011369417,0.736117
1362011429417,0.728743
1362011489417,0.723080
1362011549417,0.726614
1362011609417,0.731099
1362011669417,0.730231
1362011729417,0.734407
1362011789417,0.731089
1362011849417,0.737063
1362011909417,0.731421
1362011969417,0.723255
1362012029417,0.720399
1362012089417,0.726435
1362012149417,0.728708
1362012209417,0.725734
1362012269417,0.728610
1362012329417,0.729674
1362012389417,0.725919
1362012449417,0.726420
1362012509417,0.727505
1362012569417,0.723288
1362012629417,0.733053
1362012689417,0.729203
1362012749417,0.728865
1362012809417,0.727820
1362012869417,0.720584
1362012929417,0.724913
1362012989417,0.726678
1362013049417,0.728432
1362013109417,0.724541
1362013169417,0.727302
1362013229428,0.724721
1362013289428,0.729480
1362013349428,0.722752
1362013409428,0.726210
1362013469428,0.723892
1362013529428,0.730284
1362013589428,0.732876
1362013649428,0.729810
1362013709428,0.736973
1362013769428,0.728882
1362013829428,0.729378
1362013889428,0.735416
1362013949428,0.724605
1362014009428,0.731110
1362014069428,0.728235
1362014129428,0.733650
1362014189428,0.725189
1362014249428,0.732468
1362014309428,0.727223
1362014369428,0.725165
1362014429428,0.725671
1362014489428,0.725984
1362014549428,0.725337
1362014609428,0.727039
1362014669428,0.727229
1362014729428,0.729852
1362014789428,0.724028
1362014849428,0.728125
1362014909428,0.727200
1362014969428,0.729892
1362015029428,0.727596
1362015089428,0.726880
1362015149428,0.727749
1362015209428,0.731635
1362015269428,0.734440
1362015329428,0.727003
1362015389428,0.728558
1362015449428,0.735958
1362015509428,0.727168
1362015569428,0.734624
1362015629428,0.734864
1362015689428,0.727781
1362015749428,0.726062
1362015809428,0.725085
1362015869428,0.729223
1362015929428,0.729788
1362015989428,0.729557
1362016049428,0.727720
1362016109428,0.729360
1362016169428,0.737604
1362016229428,0.733137
1362016289428,0.735134
1362016349428,0.735721
1362016409428,0.730800
1362016469428,0.726266
1362016529428,0.731553
1362016589428,0.738052
1362016649428,0.729983
1362016709428,0.732234
1362016769428,0.737745
1362016829439,0.734537
1362016889439,0.731114
1362016949439,0.737579
1362017009439,0.736950
1362017069439,0.736203
1362017129439,0.733914
1362017189439,0.732134
1362017249439,0.733461
1362017309439,0.738175
1362017369439,0.734381
1362017429439,0.736908
1362017489439,0.740742
1362017549439,0.735245
1362017609439,0.740893
1362017669439,0.738587
1362017729439,0.738638
1362017789439,0.740221
1362017849439,0.737363
1362017909439,0.732930
1362017969439,0.731997
1362018029439,0.734118
1362018089439,0.743860
1362018149439,0.742801
1362018209439,0.735876
1362018269439,0.736995
1362018329439,0.737327
1362018389439,0.742398
1362018449439,0.743855
1362018509439,0.745362
1362018569439,0.742240
1362018629439,0.738150
1362018689439,0.736995
1362018749439,0.737384
1362018809439,0.743045
1362018869439,0.742635
1362018929439,0.746637
1362018989439,0.738303
1362019049439,0.736285
1362019109439,0.734333
1362019169439,0.741383
1362019229439,0.737137
1362019289439,0.741554
1362019349439,0.741210
1362019409439,0.736086
1362019469439,0.731821
1362019529439,0.738307
1362019589439,0.734911
1362019649439,0.747476
1362019709439,0.739861
1362019769439,0.739135
1362019829439,0.740969
1362019889439,0.736796
1362019949439,0.743426
1362020009439,0.736347
1362020069439,0.738099
1362020129439,0.737555
1362020189439,0.737781
1362020249439,0.740217
1362020309439,0.739446
1362020369439,0.737368
1362020429450,0.736764
1362020489450,0.733355
1362020549450,0.739227
1362020609450,0.737714
1362020669450,0.737299
1362020729450,0.735057
1362020789450,0.732348
1362020849450,0.741523
1362020909450,0.737673
1362020969450,0.737967
1362021029450,0.742836
1362021089450,0.736507
1362021149450,0.742120
1362021209450,0.743845
1362021269450,0.740229
1362021329450,0.736854
1362021389450,0.743876
1362021449450,0.736320
1362021509450,0.738666
1362021569450,0.739828
1362021629450,0.739570
1362021689450,0.738333
1362021749450,0.736752
1362021809450,0.741090
1362021869450,0.740516
1362021929450,0.738414
1362021989450,0.737524
1362022049450,0.737092
1362022109450,0.733639
1362022169450,0.743618
1362022229450,0.743834
1362022289450,0.739297
1362022349450,0.740784
1362022409450,0.742967
1362022469450,0.737572
1362022529450,0.741935
1362022589450,0.739197
1362022649450,0.730493
1362022709450,0.738915
1362022769450,0.738024
1362022829450,0.739268
1362022889450,0.733799
1362022949450,0.738308
1362023009450,0.741382
1362023069450,0.741468
1362023129450,0.731372
1362023189450,0.729349
1362023249450,0.734389
1362023309450,0.735593
1362023369450,0.733871
1362023429450,0.735483
1362023489450,0.734260
1362023549450,0.737270
1362023609450,0.739120
1362023669450,0.727748
1362023729450,0.734064
1362023789450,0.731524
1362023849450,0.739762
1362023909450,0.735813
1362023969450,0.733343
1362024029461,0.733379
1362024089461,0.733648
1362024149461,0.741329
1362024209461,0.739725
1362024269461,0.731530
1362024329461,0.736868
1362024389461,0.735112
1362024449461,0.731466
1362024509461,0.732542
1362024569461,0.732337
1362024629461,0.731678
1362024689461,0.731277
1362024749461,0.731201
1362024809461,0.736448
1362024869461,0.726300
1362024929461,0.732819
1362024989461,0.730412
1362025049461,0.731043
1362025109461,0.730628
1362025169461,0.732612
1362025229461,0.736741
1362025289461,0.734280
1362025349461,0.731295
1362025409461,0.729836
1362025469461,0.735565
1362025529461,0.738450
1362025589461,0.736840
1362025649461,0.738903
1362025709461,0.737824
1362025769461,0.729505
1362025829461,0.735583
1362025889461,0.731189
1362025949461,0.732965
1362026009461,0.730042
1362026069461,0.728945
1362026129461,0.735739
1362026189461,0.734773
1362026249461,0.724925
1362026309461,0.736102
1362026369461,0.731304
1362026429461,0.732462
1362026489461,0.733097
1362026549461,0.729862
1362026609461,0.730836
1362026669461,0.730598
1362026729461,0.729854
1362026789461,0.727461
1362026849461,0.730834
1362026909461,0.732006
1362026969461,0.730612
1362027029461,0.732826
1362027089461,0.729043
1362027149461,0.733179
1362027209461,0.733890
1362027269461,0.732500
1362027329461,0.737019
1362027389461,0.725962
1362027449461,0.733399
1362027509461,0.733944
1362027569461,0.731765
1362027629472,0.731586
1362027689472,0.727983
1362027749472,0.732664
1362027809472,0.725694
1362027869472,0.733442
1362027929472,0.729920
1362027989472,0.729948
1362028049472,0.730120
1362028109472,0.730176
1362028169472,0.730756
1362028229472,0.736544
1362028289472,0.728884
1362028349472,0.735241
1362028409472,0.731709
1362028469472,0.729502
1362028529472,0.730257
1362028589472,0.734816
1362028649472,0.730557
1362028709472,0.733273
1362028769472,0.734482
1362028829472,0.727726
1362028889472,0.724993
1362028949472,0.730425
1362029009472,0.729324
1362029069472,0.727366
1362029129472,0.726700
1362029189472,0.729020
1362029249472,0.731427
1362029309472,0.732507
1362029369472,0.730961
1362029429472,0.727160
1362029489472,0.727579
1362029549472,0.735333
1362029609472,0.733782
1362029669472,0.735706
1362029729472,0.731205
1362029789472,0.730148
1362029849472,0.724225
1362029909472,0.726068
1362029969472,0.737961
1362030029472,0.729068
1362030089472,0.743395
1362030149472,0.736310
1362030209472,0.732711
1362030269472,0.733838
1362030329472,0.736088
1362030389472,0.730536
1362030449472,0.741187
1362030509472,0.738957
1362030569472,0.732973
1362030629472,0.738861
1362030689472,0.739947
1362030749472,0.739166
1362030809472,0.728772
1362030869472,0.735410
1362030929472,0.727034
1362030989472,0.730390
1362031049472,0.730274
1362031109472,0.731075
1362031169472,0.728915
1362031229483,0.734035
1362031289483,0.724525
1362031349483,0.727014
1362031409483,0.730175
1362031469483,0.733227
1362031529483,0.727971
1362031589483,0.729206
1362031649483,0.729492
1362031709483,0.729711
1362031769483,0.731817
1362031829483,0.724522
1362031889483,0.733210
1362031949483,0.728065
1362032009483,0.732017
1362032069483,0.731128
1362032129483,0.734791
1362032189483,0.734765
1362032249483,0.725092
1362032309483,0.736049
1362032369483,0.731112
1362032429483,0.731562
1362032489483,0.729603
1362032549483,0.731382
1362032609483,0.732122
1362032669483,0.730715
1362032729483,0.725808
1362032789483,0.732843
1362032849483,0.734005
1362032909483,0.735629
1362032969483,0.735816
1362033029483,0.736142
1362033089483,0.732268
1362033149483,0.730647
1362033209483,0.731893
1362033269483,0.732092
1362033329483,0.740337
1362033389483,0.736869
1362033449483,0.732196
1362033509483,0.732152
1362033569483,0.733034
1362033629483,0.730604
1362033689483,0.739760
1362033749483,0.732950
1362033809483,0.729581
1362033869483,0.734553
1362033929483,0.730103
1362033989483,0.732362
1362034049483,0.733694
1362034109483,0.730881
1362034169483,0.731829
1362034229483,0.726242
1362034289483,0.732117
1362034349483,0.735725
1362034409483,0.731291
1362034469483,0.735450
1362034529483,0.730478
1362034589483,0.732049
1362034649483,0.732663
1362034709483,0.733037
1362034769483,0.730038
1362034829494,0.731942
1362034889494,0.729713
1362034949494,0.735311
1362035009494,0.738841
1362035069494,0.735095
1362035129494,0.742489
1362035189494,0.753932
1362035249494,0.738724
1362035309494,0.735644
1362035369494,0.737844
1362035429494,0.743015
1362035489494,0.743282
1362035549494,0.737497
1362035609494,0.728960
1362035669494,0.734087
1362035729494,0.733874
1362035789494,0.740522
1362035849494,0.739321
1362035909494,0.735108
1362035969494,0.736974
1362036029494,0.735839
1362036089494,0.732175
1362036149494,0.741950
1362036209494,0.738632
1362036269494,0.729856
1362036329494,0.736721
1362036389494,0.733707
1362036449494,0.732756
1362036509494,0.731329
1362036569494,0.735777
1362036629494,0.729455
1362036689494,0.734675
1362036749494,0.732512
1362036809494,0.740105
1362036869494,0.726490
1362036929494,0.728211
1362036989494,0.737958
1362037049494,0.732821
1362037109494,0.740238
1362037169494,0.737902
1362037229494,0.741358
1362037289494,0.735260
1362037349494,0.736221
1362037409494,0.738108
1362037469494,0.731306
1362037529494,0.734617
1362037589494,0.727118
1362037649494,0.728175
1362037709494,0.735006
1362037769494,0.736588
1362037829494,0.726648
1362037889494,0.734351
1362037949494,0.733857
1362038009494,0.727584
1362038069494,0.734297
1362038129494,0.727047
1362038189494,0.731030
1362038249494,0.733400
1362038309494,0.728035
1362038369494,0.730610
1362038429505,0.736597
1362038489505,0.731299
1362038549505,0.739932
1362038609505,0.731129
1362038669505,0.736352
1362038729505,0.735838
1362038789505,0.734702
1362038849505,0.735627
1362038909505,0.735760
1362038969505,0.736515
1362039029505,0.726526
1362039089505,0.736463
1362039149505,0.732739
1362039209505,0.737784
1362039269505,0.733996
1362039329505,0.731253
1362039389505,0.730141
1362039449505,0.736279
1362039509505,0.734920
1362039569505,0.735167
1362039629505,0.733580
1362039689505,0.731346
1362039749505,0.728447
1362039809505,0.735845
1362039869505,0.740630
1362039929505,0.733620
1362039989505,0.739716
1362040049505,0.736196
1362040109505,0.738173
1362040169505,0.750510
1362040229505,0.751726
1362040289505,0.747209
1362040349505,0.748210
1362040409505,0.738718
1362040469505,0.742951
1362040529505,0.733379
1362040589505,0.740743
1362040649505,0.737353
1362040709505,0.733551
1362040769505,0.739685
1362040829505,0.733267
1362040889505,0.742784
1362040949505,0.732596
1362041009505,0.739083
1362041069505,0.735851
1362041129505,0.733170
1362041189505,0.737819
1362041249505,0.736674
1362041309505,0.737336
1362041369505,0.737532
1362041429505,0.735352
1362041489505,0.734103
1362041549505,0.747135
1362041609505,0.739671
1362041669505,0.736417
1362041729505,0.739933
1362041789505,0.737712
1362041849505,0.742633
1362041909505,0.738636
1362041969505,0.742771
1362042029516,0.747044
1362042089516,0.738098
1362042149516,0.740803
1362042209516,0.743885
1362042269516,0.737785
1362042329516,0.744791
1362042389516,0.741609
1362042449516,0.746293
1362042509516,0.744542
1362042569516,0.735535
1362042629516,0.735437
1362042689516,0.730805
1362042749516,0.742464
1362042809516,0.745426
1362042869516,0.742604
1362042929516,0.740864
1362042989516,0.744720
1362043049516,0.746469
1362043109516,0.738670
1362043169516,0.749096
1362043229516,0.740517
1362043289516,0.740980
1362043349516,0.750909
1362043409516,0.744101
1362043469516,0.737569
1362043529516,0.743471
1362043589516,0.744674
1362043649516,0.742939
1362043709516,0.745723
1362043769516,0.749065
1362043829516,0.752496
1362043889516,0.752790
1362043949516,0.749931
1362044009516,0.746178
1362044069516,0.748393
1362044129516,0.749525
1362044189516,0.748515
1362044249516,0.746031
1362044309516,0.743958
1362044369516,0.757005
1362044429516,0.739312
1362044489516,0.748236
1362044549516,0.750712
1362044609516,0.749366
1362044669516,0.753204
1362044729516,0.752103
1362044789516,0.749560
1362044849516,0.747212
1362044909516,0.741328
1362044969516,0.752299
1362045029516,0.741759
1362045089516,0.742677
1362045149516,0.753262
1362045209516,0.742124
1362045269516,0.743726
1362045329516,0.745998
1362045389516,0.745017
1362045449516,0.736676
1362045509516,0.745104
1362045569516,0.740375
1362045629527,0.744092
1362045689527,0.742839
1362045749527,0.742192
1362045809527,0.736271
1362045869527,0.744308
1362045929527,0.735827
1362045989527,0.746655
1362046049527,0.733150
1362046109527,0.739935
1362046169527,0.736477
1362046229527,0.744250
1362046289527,0.747251
1362046349527,0.744888
1362046409527,0.741692
1362046469527,0.744550
1362046529527,0.742742
1362046589527,0.737515
1362046649527,0.744031
1362046709527,0.733584
1362046769527,0.742214
1362046829527,0.747317
1362046889527,0.736159
1362046949527,0.742528
1362047009527,0.741874
1362047069527,0.747037
1362047129527,0.734601
1362047189527,0.744691
1362047249527,0.747696
1362047309527,0.746118
1362047369527,0.745548
1362047429527,0.752692
1362047489527,0.748547
1362047549527,0.757172
1362047609527,0.751000
1362047669527,0.750495
1362047729527,0.750233
1362047789527,0.752398
1362047849527,0.755739
1362047909527,0.757420
1362047969527,0.751602
1362048029527,0.756143
1362048089527,0.754726
1362048149527,0.749837
1362048209527,0.758218
1362048269527,0.756929
1362048329527,0.751184
1362048389527,0.748871
1362048449527,0.753635
1362048509527,0.746659
1362048569527,0.751505
1362048629527,0.743980
1362048689527,0.746089
1362048749527,0.754317
1362048809527,0.753836
1362048869527,0.745014
1362048929527,0.751998
1362048989527,0.749999
1362049049527,0.744989
1362049109527,0.745421
1362049169527,0.744665
1362049229538,0.745753
1362049289538,0.745424
1362049349538,0.739955
1362049409538,0.736942
1362049469538,0.739134
1362049529538,0.741575
1362049589538,0.743934
1362049649538,0.747172
1362049709538,0.747411
1362049769538,0.751363
1362049829538,0.750453
1362049889538,0.753574
1362049949538,0.749763
1362050009538,0.748240
1362050069538,0.745947
1362050129538,0.742324
1362050189538,0.747864
1362050249538,0.742269
1362050309538,0.741852
1362050369538,0.749044
1362050429538,0.745529
1362050489538,0.745337
1362050549538,0.743752
1362050609538,0.740470
1362050669538,0.745961
1362050729538,0.741213
1362050789538,0.739649
1362050849538,0.730978
1362050909538,0.742392
1362050969538,0.732004
1362051029538,0.739903
1362051089538,0.739844
1362051149538,0.739559
1362051209538,0.740116
1362051269538,0.743341
1362051329538,0.740146
1362051389538,0.735990
1362051449538,0.741910
1362051509538,0.736982
1362051569538,0.742915
1362051629538,0.735533
1362051689538,0.745483
1362051749538,0.747279
1362051809538,0.741225
1362051869538,0.741788
1362051929538,0.740620
1362051989538,0.739079
1362052049538,0.740732
1362052109538,0.741237
1362052169538,0.734188
1362052229538,0.736300
1362052289538,0.743267
1362052349538,0.746011
1362052409538,0.738931
1362052469538,0.733295
1362052529538,0.741289
1362052589538,0.740943
1362052649538,0.740041
1362052709538,0.738665
1362052769538,0.741217
1362052829549,0.737802
1362052889549,0.736375
1362052949549,0.737441
1362053009549,0.739927
1362053069549,0.738211
1362053129549,0.742659
1362053189549,0.740273
1362053249549,0.732600
1362053309549,0.735837
1362053369549,0.740931
1362053429549,0.734059
1362053489549,0.737497
1362053549549,0.742503
1362053609549,0.742038
1362053669549,0.742265
1362053729549,0.739068
1362053789549,0.740857
1362053849549,0.734364
1362053909549,0.744253
1362053969549,0.739923
1362054029549,0.742176
1362054089549,0.743546
1362054149549,0.743295
1362054209549,0.731854
1362054269549,0.739881
1362054329549,0.737780
1362054389549,0.746072
1362054449549,0.738078
1362054509549,0.734799
1362054569549,0.740452
1362054629549,0.742548
1362054689549,0.730563
1362054749549,0.738118
1362054809549,0.745499
1362054869549,0.742065
1362054929549,0.739213
1362054989549,0.739960
1362055049549,0.733698
1362055109549,0.742775
1362055169549,0.740299
1362055229549,0.732172
1362055289549,0.733566
1362055349549,0.746580
1362055409549,0.738848
1362055469549,0.746110
1362055529549,0.735593
1362055589549,0.736127
1362055649549,0.736625
1362055709549,0.739049
1362055769549,0.737782
1362055829549,0.743623
1362055889549,0.737657
1362055949549,0.745446
1362056009549,0.742208
1362056069549,0.740331
1362056129549,0.731649
1362056189549,0.743029
1362056249549,0.743681
1362056309549,0.743100
1362056369549,0.739586
1362056429560,0.744366
1362056489560,0.744641
1362056549560,0.745679
1362056609560,0.739970
1362056669560,0.746306
1362056729560,0.739928
1362056789560,0.740392
1362056849560,0.749822
1362056909560,0.741244
1362056969560,0.744423
1362057029560,0.746216
1362057089560,0.739215
1362057149560,0.745003
1362057209560,0.735754
1362057269560,0.745709
1362057329560,0.737858
1362057389560,0.742452
1362057449560,0.744789
1362057509560,0.740013
1362057569560,0.742060
1362057629560,0.742561
1362057689560,0.734834
1362057749560,0.736237
1362057809560,0.739796
1362057869560,0.741271
1362057929560,0.742628
1362057989560,0.742880
1362058049560,0.743994
1362058109560,0.739036
1362058169560,0.737335
1362058229560,0.737443
1362058289560,0.738311
1362058349560,0.738785
1362058409560,0.738483
1362058469560,0.744316
1362058529560,0.741741
1362058589560,0.739462
1362058649560,0.738409
1362058709560,0.736980
1362058769560,0.735942
1362058829560,0.741231
1362058889560,0.739797
1362058949560,0.739605
1362059009560,0.742497
1362059069560,0.737945
1362059129560,0.738951
1362059189560,0.738011
1362059249560,0.739826
1362059309560,0.741433
1362059369560,0.740326
1362059429560,0.738267
1362059489560,0.744880
1362059549560,0.746849
1362059609560,0.739766
1362059669560,0.738061
1362059729560,0.743586
1362059789560,0.731860
1362059849560,0.732224
1362059909560,0.735708
1362059969560,0.734991
1362060029571,0.740442
1362060089571,0.735200
1362060149571,0.742628
1362060209571,0.737590
1362060269571,0.738893
1362060329571,0.744767
1362060389571,0.733619
1362060449571,0.742054
1362060509571,0.742223
1362060569571,0.744620
1362060629571,0.732949
1362060689571,0.736742
1362060749571,0.738272
1362060809571,0.739509
1362060869571,0.742994
1362060929571,0.744598
1362060989571,0.747885
1362061049571,0.743745
1362061109571,0.740787
1362061169571,0.740476
1362061229571,0.735994
1362061289571,0.741882
1362061349571,0.742764
1362061409571,0.738464
1362061469571,0.739609
1362061529571,0.739204
1362061589571,0.745280
1362061649571,0.733589
1362061709571,0.735140
1362061769571,0.735295
1362061829571,0.735654
1362061889571,0.738136
1362061949571,0.743517
1362062009571,0.734130
1362062069571,0.744599
1362062129571,0.747750
1362062189571,0.742695
1362062249571,0.742736
1362062309571,0.752796
1362062369571,0.754730
1362062429571,0.749650
1362062489571,0.738275
1362062549571,0.742116
1362062609571,0.741515
1362062669571,0.746871
1362062729571,0.750420
1362062789571,0.741422
1362062849571,0.743117
1362062909571,0.748361
1362062969571,0.743395
1362063029571,0.743107
1362063089571,0.745159
1362063149571,0.737596
1362063209571,0.746892
1362063269571,0.754463
1362063329571,0.748714
1362063389571,0.742630
1362063449571,0.756094
1362063509571,0.756273
1362063569571,0.757534
1362063629581,0.756356
1362063689581,0.755736
1362063749581,0.758257
1362063809581,0.755123
1362063869581,0.759130
1362063929581,0.759521
1362063989581,0.755986
1362064049581,0.757448
1362064109581,0.754508
1362064169581,0.753926
1362064229581,0.745716
1362064289581,0.752020
1362064349581,0.748095
1362064409581,0.748995
1362064469581,0.749231
1362064529581,0.754397
1362064589581,0.740996
1362064649581,0.740716
1362064709581,0.752009
1362064769581,0.750062
1362064829581,0.755220
1362064889581,0.756491
1362064949581,0.753552
1362065009581,0.752509
1362065069581,0.749934
1362065129581,0.759742
1362065189581,0.755661
1362065249581,0.750474
1362065309581,0.753888
1362065369581,0.750545
1362065429581,0.749900
1362065489581,0.754181
1362065549581,0.758965
1362065609581,0.749587
1362065669581,0.749622
1362065729581,0.752227
1362065789581,0.739046
1362065849581,0.749541
1362065909581,0.741463
1362065969581,0.743698
1362066029581,0.749493
1362066089581,0.746966
1362066149581,0.744857
1362066209581,0.739162
1362066269581,0.752736
1362066329581,0.744426
1362066389581,0.742269
1362066449581,0.739806
1362066509581,0.744358
1362066569581,0.749265
1362066629581,0.741622
1362066689581,0.740976
1362066749581,0.738921
1362066809581,0.746609
1362066869581,0.748015
1362066929581,0.738988
1362066989581,0.739114
1362067049581,0.752920
1362067109581,0.749041
1362067169581,0.755875
1362067229592,0.751553
1362067289592,0.762297
1362067349592,0.766116
1362067409592,0.768084
1362067469592,0.774594
1362067529592,0.777000
1362067589592,0.772914
1362067649592,0.773845
1362067709592,0.771796
1362067769592,0.767291
1362067829592,0.764950
1362067889592,0.766131
1362067949592,0.760349
1362068009592,0.758888
1362068069592,0.763823
1362068129592,0.757438
1362068189592,0.752969
1362068249592,0.758565
1362068309592,0.753186
1362068369592,0.753158
1362068429592,0.748213
1362068489592,0.753709
1362068549592,0.751804
1362068609592,0.748017
1362068669592,0.743214
1362068729592,0.754560
1362068789592,0.752087
1362068849592,0.745635
1362068909592,0.748571
1362068969592,0.748569
1362069029592,0.746474
1362069089592,0.741683
1362069149592,0.750321
1362069209592,0.746035
1362069269592,0.742408
1362069329592,0.745779
1362069389592,0.747343
1362069449592,0.747037
1362069509592,0.736215
1362069569592,0.744724
1362069629592,0.745275
1362069689592,0.741213
1362069749592,0.746303
1362069809592,0.745813
1362069869592,0.744493
1362069929592,0.749233
1362069989592,0.746814
1362070049592,0.751006
1362070109592,0.741024
1362070169592,0.743419
1362070229592,0.749789
1362070289592,0.740477
1362070349592,0.747931
1362070409592,0.739877
1362070469592,0.745679
1362070529592,0.741780
1362070589592,0.738613
1362070649592,0.744461
1362070709592,0.742185
1362070769592,0.743022
1362070829603,0.745544
1362070889603,0.738879
1362070949603,0.741101
1362071009603,0.746045
1362071069603,0.738333
1362071129603,0.744587
1362071189603,0.740695
1362071249603,0.743173
1362071309603,0.743822
1362071369603,0.737578
1362071429603,0.741162
1362071489603,0.741157
1362071549603,0.749020
1362071609603,0.743954
1362071669603,0.740464
1362071729603,0.740376
1362071789603,0.743404
1362071849603,0.737210
1362071909603,0.742641
1362071969603,0.744727
1362072029603,0.747589
1362072089603,0.746694
1362072149603,0.741345